Regional Weather Roundup
Issued by NWS

Home | Current Version | Previous Version | Graphics & Text | Print | Product List | Glossary On
Versions: 1 2 3 4 5 6 7 8 9 10 11 12 13 14 15 16 17 18 19 20 21 22 23 24 25 26 27 28 29 30 31 32 33 34 35 36 37 38 39 40 41 42 43 44 45 46 47 48 49 50
000
ASUS43 KLMK 292110
RWRKY
KENTUCKY REGIONAL WEATHER ROUNDUP
NATIONAL WEATHER SERVICE LOUISVILLE KY
500 PM EDT FRI MAY 29 2015

NOTE "FAIR" INDICATES FEW OR NO CLOUDS BELOW 12,000 FEET
WITH NO SIGNIFICANT WEATHER AND/OR OBSTRUCTIONS TO VISIBILITY.

KYZ001>023-026-027-061>063-070>075-292200-
WESTERN AND SOUTH CENTRAL KENTUCKY

CITY           SKY/WX    TMP DP  RH WIND       PRES   REMARKS
PADUCAH        SUNNY     84  66  54 S8        30.01F
HENDERSON      PTSUNNY   82  66  57 S13       30.02F
OWENSBORO      MOSUNNY   82  69  64 S10       30.05F
HOPKINSVILLE   SUNNY     82  67  61 S10       30.05F
BOWLING GREEN  PTSUNNY   83  67  58 SW10      30.07F
GLASGOW        MOSUNNY   82  65  55 S7        30.09F
$$

KYZ024-025-028>034-038-045-046-053-292200-
NORTH CENTRAL KENTUCKY

CITY           SKY/WX    TMP DP  RH WIND       PRES   REMARKS
LOUISVILLE/SDF MOSUNNY   83  67  58 S13       30.06F
LOUISVILLE/LOU MOSUNNY   82  66  58 SW10      30.07F
FORT KNOX      MOSUNNY   81  67  62 S9        30.06F
$$

KYZ035>037-039>044-047>052-055>060-089>105-292200-
NORTHEAST KENTUCKY

CITY           SKY/WX    TMP DP  RH WIND       PRES   REMARKS
LEXINGTON      MOSUNNY   80  67  64 S13       30.11F
COVINGTON      PTSUNNY   83  67  58 S10       30.08
FRANKFORT      MOSUNNY   83  64  52 S10G18    30.08F
$$

KYZ054-064>069-076>088-106>120-292200-
SOUTHEAST KENTUCKY

CITY           SKY/WX    TMP DP  RH WIND       PRES   REMARKS
JACKSON        TSTM      71  67  87 W3        30.16S FOG
LONDON         MOSUNNY   82  64  54 W8        30.14F
SOMERSET       MOSUNNY   73  64  73 W3        30.15S
MIDDLESBORO    MOSUNNY   79  67  66 NE5       30.17F
MONTICELLO     PTCLDY    82  70  67 W6        30.16F
$$




USA.gov is the U.S. government's official web portal to all federal, state and local government web resources and services.